{"data":{"norad_id":65027,"intl_designator":"2025-161N","name":"STARLINK-34655","alt_names":[],"object_type":"PAYLOAD","status":"ACTIVE","operator":null,"country":"US","launch_date":"2025-07-30","launch_site_code":"AFWTR","launch_vehicle":null,"mission":null,"orbit_class":"UNKNOWN","rcs_meters":null,"size_class":null,"mass_kg":null,"dimensions":null,"purposes":["comms"],"wikipedia_slug":null,"has_3d_model":false,"image_url":null,"decayed_at":null,"tle_current":{"epoch":"2026-09-20T20:08:01.303872Z","epoch_age_seconds":94962,"freshness":"FRESH","line1":"1 65027U 25161N   26263.83890398  .00025001  00000+0  74840-3 0  9995","line2":"2 65027  53.1579 105.9376 0001578  92.2516 267.8667 15.34408436 65235","mean_motion":15.34408436,"eccentricity":0.0001578,"inclination_deg":53.1579,"raan_deg":105.9376,"arg_perigee_deg":92.2516,"mean_anomaly_deg":267.8667,"bstar":0.0007484,"rev_number":6523,"period_min":93.847242117222,"perigee_km":461.59868611886,"apogee_km":463.75764738549,"semimajor_km":6840.8151667522,"source":"CELESTRAK","updated_at":"2026-09-21T09:00:35.494067Z"}}}